Wind_Speed
1 2 4 5 4 4 3 2 5 9 5 1 7 7 6 7 2 2 15 22 35 32 28 24 21 20 19 18 16 16 16 17 17 17 17 16 16 13 12 12 10 8 7 6 7 8 8 7 8
4 4 7 3 5 4 3 2 15 13 8 8 8 5 5 3 7 13 15 32 36 32 28 25 22 21 20 20 17 16 15 15 15 15 15 14 13 11 9 9 7 6 6 5 7 6 7 8 9
16 13 4 4 2 1 5 11 17 15 7 6 4 3 4 7 14 18 21 33 35 30 29 26 22 21 20 20 18 16 14 14 14 14 13 12 10 9 8 6 5 5 6 7 7 6 5 5 8
4 8 4 4 3 4 5 5 17 16 4 10 4 4 3 4 23 20 35 36 34 31 28 24 22 21 20 20 18 16 14 14 13 13 12 11 10 9 7 4 4 5 7 7 6 6 4 3 3
8 3 4 2 4 4 6 7 8 4 6 1 5 3 3 11 23 40 37 36 34 31 27 25 23 21 19 17 16 15 14 13 13 12 11 10 9 8 6 5 5 6 7 7 6 5 4 4 2
4 2 4 1 4 6 8 5 11 5 6 3 5 5 1 28 39 32 34 34 32 33 28 25 22 20 18 17 16 15 14 13 13 12 10 10 8 8 7 6 6 6 5 6 5 4 3 3 3
4 4 1 5 3 6 2 6 5 8 6 1 6 5 2 22 30 34 32 34 33 33 31 26 22 19 17 16 16 15 14 13 12 11 10 10 9 8 8 7 8 7 6 5 3 2 1 2 2
4 3 2 6 7 10 6 7 6 5 3 3 1 5 10 15 31 32 33 32 32 33 31 28 24 20 19 18 17 15 15 13 12 11 10 9 9 8 8 8 8 7 6 5 3 2 3 4 6
4 3 4 5 3 13 15 6 4 7 6 2 4 1 20 31 35 31 28 25 27 29 28 27 24 21 19 18 17 16 14 13 12 11 10 10 9 9 8 7 7 7 6 4 2 2 5 7 8
6 5 10 8 11 12 20 5 6 5 6 3 2 13 30 36 33 29 25 21 24 29 27 25 23 20 19 18 17 16 15 14 14 13 13 12 10 8 7 6 5 5 3 3 5 6 8 15 19
8 5 5 5 14 17 9 6 3 10 3 6 13 19 22 28 26 27 26 34 35 34 30 25 22 21 20 19 17 16 14 15 14 13 13 12 9 7 7 8 3 3 2 2 5 7 11 12 16
5 6 4 4 3 9 13 9 5 8 6 13 13 18 19 20 20 24 24 26 32 30 29 26 23 23 20 16 17 16 16 16 15 14 12 10 9 9 10 10 5 7 3 4 9 3 3 3 5
6 2 0 6 4 8 16 8 5 5 10 10 12 14 22 19 23 27 30 29 32 30 28 28 25 25 22 18 18 17 16 15 13 12 12 9 7 7 8 10 12 7 3 3 2 6 8 6 4
6 6 4 6 7 10 10 4 5 4 7 10 14 13 20 20 26 22 24 28 31 35 32 28 27 26 22 20 19 19 16 13 14 13 14 9 7 6 5 8 6 6 8 2 3 6 11 2 2
9 7 7 6 5 5 11 3 6 8 11 15 12 11 18 21 28 32 35 35 38 35 36 33 30 28 24 19 21 19 19 16 13 13 12 11 7 3 3 2 3 3 7 8 11 7 7 2 1
4 4 3 8 7 6 6 7 7 15 16 14 18 18 15 20 29 30 31 32 34 31 34 33 31 30 24 22 23 19 17 15 11 13 14 10 8 7 8 4 2 8 10 8 6 5 7 9 5
4 5 6 5 7 4 4 7 9 16 14 16 15 9 14 15 22 27 31 34 36 35 37 35 32 31 27 24 24 18 16 15 13 14 11 16 13 12 9 2 3 1 2 8 6 4 4 7 2
4 5 6 1 5 5 4 7 6 18 19 20 15 6 10 15 23 26 31 33 35 38 38 37 35 33 30 27 23 20 17 14 15 17 14 14 11 14 7 2 2 4 1 2 3 1 4 7 5
7 7 6 5 8 5 7 6 6 16 16 16 13 8 12 19 22 29 30 33 34 38 37 38 39 37 34 32 27 22 20 16 14 16 15 15 9 14 9 3 1 1 2 1 2 5 5 12 5
7 5 7 6 7 2 3 7 7 6 15 22 21 15 16 19 17 25 28 31 34 38 40 37 40 38 39 36 30 25 23 18 16 16 17 17 12 14 12 7 4 1 2 2 0 4 6 8 9
8 3 4 7 6 5 4 8 8 10 6 20 23 24 22 24 23 21 28 34 34 35 38 41 42 40 41 39 33 27 22 19 19 18 18 18 16 15 12 12 9 7 3 1 5 3 3 6 7
4 8 5 6 5 3 4 7 6 7 8 10 22 22 23 22 22 22 26 31 36 40 40 42 41 39 43 40 37 33 28 21 23 21 19 19 18 18 18 14 11 9 6 4 3 4 3 2 6
8 5 3 3 5 5 2 3 8 2 10 6 19 25 23 24 25 25 25 34 40 36 38 40 41 40 41 42 39 37 33 29 25 22 21 19 22 21 19 18 16 12 9 9 6 5 4 1 1
1 5 9 6 3 3 6 6 10 4 6 4 9 19 22 22 22 22 31 32 32 32 33 33 36 39 40 43 41 38 35 30 28 24 23 22 23 23 22 18 19 18 15 11 10 9 6 5 4
5 7 4 5 4 6 3 2 10 8 5 8 10 12 17 20 20 20 20 24 27 33 32 31 34 34 39 42 42 40 35 31 29 29 27 25 25 27 26 23 21 20 18 16 12 10 9 7 5
5 8 5 2 2 6 6 4 4 12 8 10 14 9 5 19 19 22 21 26 30 33 32 31 32 32 36 40 40 39 37 33 31 29 29 27 27 27 27 25 23 20 20 17 16 14 10 10 9
5 2 7 4 3 3 4 7 4 13 12 10 8 10 5 17 19 22 19 26 30 32 34 35 34 33 38 40 38 39 38 36 35 33 28 26 26 24 25 26 25 23 22 21 19 18 15 13 11
2 2 5 4 3 3 6 5 3 21 22 20 21 19 19 9 16 17 19 26 29 33 36 35 36 39 42 39 36 38 39 38 37 34 33 32 27 25 24 25 24 23 25 24 20 19 16 16 14
7 5 5 5 4 1 3 3 12 12 14 15 18 20 20 11 14 17 18 27 29 32 31 32 31 32 32 35 37 35 35 36 36 37 34 31 32 29 28 25 22 21 26 29 25 24 21 20 16
7 2 3 4 4 1 4 1 12 13 15 15 16 17 17 21 10 7 7 8 29 30 31 32 33 32 35 37 34 36 35 35 34 34 34 33 30 27 27 27 27 23 25 25 26 26 23 20 20
Wind_Direction
102 21 125 65 58 44 321 104 106 98 65 355 68 103 128 34 256 206 150 159 155 155 160 159 158 154 152 145 143 142 140 137 133 132 131 132 131 127 121 115 111 103 97 107 115 117 117 119 124
155 188 56 82 64 1 308 39 79 100 129 118 87 99 53 91 76 117 124 156 154 154 158 156 156 153 154 153 149 141 143 140 143 140 136 134 134 130 122 120 113 98 94 108 120 119 123 121 119
86 39 71 55 110 258 322 72 113 110 39 18 98 30 85 117 122 142 148 148 150 153 156 155 156 153 150 151 152 146 151 145 149 152 148 146 140 131 129 123 112 109 115 118 130 127 136 123 125
53 29 36 75 277 248 217 77 116 112 57 17 25 59 61 126 150 152 149 150 150 154 155 154 156 153 150 151 152 152 158 154 150 154 153 151 153 145 144 134 126 133 129 127 133 137 145 140 130
64 61 82 144 244 270 355 74 93 66 111 125 332 102 76 126 140 142 149 151 152 154 155 156 157 154 153 153 151 154 160 158 152 155 156 159 157 158 161 154 152 156 144 148 151 152 161 172 206
33 73 74 215 273 284 118 287 88 95 140 149 81 97 17 139 138 148 148 154 157 157 160 158 159 156 154 155 158 159 160 159 156 159 159 163 163 167 164 165 159 169 161 161 171 171 175 192 203
138 103 41 203 244 327 125 158 252 135 165 245 147 110 47 147 146 149 150 159 160 161 160 160 161 159 158 158 159 161 163 161 157 158 160 156 161 168 165 163 160 169 181 183 185 206 269 295 274
129 91 152 304 57 25 342 122 124 112 112 111 36 166 167 152 149 146 149 156 161 162 161 164 162 165 164 162 164 167 165 165 161 162 163 157 161 162 159 165 172 176 192 202 221 264 297 304 302
140 95 188 231 143 169 233 262 141 96 119 191 350 108 145 133 131 134 137 145 158 165 166 168 168 169 166 166 167 169 167 163 171 165 167 159 162 159 161 165 178 190 199 205 233 297 327 349 324
155 184 202 222 153 178 191 213 146 116 171 94 71 122 131 138 140 141 150 153 162 169 172 173 170 171 171 171 172 174 170 172 175 174 171 164 160 167 167 183 206 211 218 287 321 355 340 355 344
175 209 194 321 119 157 165 128 154 158 115 144 153 143 142 147 151 153 163 167 173 175 177 179 180 179 177 179 178 179 176 175 176 176 175 173 173 187 211 221 242 242 199 328 319 328 344 337 332
147 187 168 258 152 158 160 148 161 233 163 155 157 150 147 160 165 163 167 171 169 173 177 179 182 184 183 183 180 173 170 171 171 170 170 185 205 227 231 230 221 230 210 42 357 253 22 152 254
71 170 38 300 348 155 137 191 210 170 152 155 172 165 166 169 171 178 174 176 172 171 180 183 185 188 187 191 180 170 168 173 179 188 184 189 196 221 253 248 256 259 204 294 289 319 283 202 217
313 302 283 288 300 160 158 187 152 233 140 160 177 188 178 173 175 174 174 179 179 176 173 182 185 187 189 193 188 187 186 183 190 193 196 204 206 227 249 231 214 219 182 103 13 338 37 48 202
323 328 319 274 255 194 136 74 233 154 171 148 167 164 180 183 177 182 182 182 183 183 178 181 183 184 190 207 196 193 186 192 191 195 197 201 205 224 203 219 90 145 228 292 268 250 311 320 289
318 329 316 280 207 220 104 268 173 158 155 156 178 170 184 187 186 188 185 181 186 186 185 185 187 189 189 185 185 183 182 187 199 198 201 201 201 224 224 342 325 320 252 275 256 307 324 342 166
356 263 246 284 200 168 140 253 162 161 158 181 195 179 174 183 195 185 185 181 183 187 188 191 187 186 186 183 181 184 188 190 201 199 217 207 215 209 227 234 358 17 173 276 243 327 343 359 114
283 342 308 206 232 201 191 238 146 169 168 194 206 239 178 186 195 186 179 183 184 188 193 193 190 190 189 189 187 190 188 197 200 192 197 202 230 204 207 141 269 78 245 202 199 355 23 53 93
295 286 278 279 297 194 222 246 257 173 185 198 215 216 193 200 195 186 183 181 182 189 192 190 190 195 191 190 189 189 190 190 189 198 196 201 198 203 198 178 297 258 330 354 29 26 61 99 100
278 244 315 295 278 145 238 278 262 226 191 197 196 201 204 194 184 190 184 184 184 189 195 190 189 193 196 196 193 193 194 199 202 204 199 200 211 204 205 198 201 150 134 177 38 54 40 93 115
273 258 280 266 326 330 342 315 293 278 226 195 193 192 188 187 184 185 188 188 187 192 193 196 196 197 199 198 195 196 198 199 202 209 210 207 209 208 213 206 210 202 178 196 116 86 57 54 55
242 264 226 318 46 282 80 295 290 282 290 183 188 190 187 187 187 184 186 189 191 193 197 200 199 198 197 199 195 195 196 202 212 214 214 212 210 205 212 211 197 201 194 189 158 112 118 79 49
226 249 322 333 337 18 330 59 265 69 294 266 181 187 187 187 184 187 191 190 192 192 193 198 201 201 198 199 201 199 203 212 216 218 216 215 211 214 216 220 209 206 196 213 220 208 169 62 49
175 23 19 34 66 358 251 143 289 257 219 220 182 189 188 185 186 188 192 190 190 191 193 195 196 200 200 201 203 203 207 211 213 216 217 216 219 221 220 227 225 222 215 215 223 233 248 238 214
75 56 353 357 7 227 80 96 243 283 312 191 196 195 189 183 180 180 180 186 187 191 193 191 194 196 200 202 205 208 213 213 216 219 219 223 224 219 220 225 230 227 220 222 230 232 230 225 227
202 146 155 240 244 274 334 276 297 334 27 13 28 7 204 179 181 181 180 180 184 189 191 192 193 196 199 205 207 211 215 216 217 220 220 226 229 226 222 227 231 233 230 227 230 229 231 225 244
267 177 190 151 162 37 278 295 359 19 34 18 32 18 277 190 181 183 180 177 184 186 191 193 194 198 202 206 208 211 217 217 219 220 221 224 225 224 226 228 232 229 230 230 233 236 237 240 243
134 231 16 12 343 319 299 309 22 17 11 4 8 23 356 214 186 180 182 183 182 188 193 195 196 196 203 205 208 215 219 224 226 226 227 227 229 227 227 223 230 234 228 230 224 231 234 232 236
11 3 43 111 119 168 324 329 40 26 35 7 12 1 3 331 191 189 183 185 185 188 188 195 197 197 200 203 207 212 220 226 228 229 228 227 229 232 228 225 224 231 225 223 226 225 229 231 238
65 37 59 107 278 187 161 256 12 19 26 15 6 1 358 12 32 73 358 246 183 186 187 187 193 196 200 204 206 209 217 220 226 235 234 227 228 232 232 230 228 229 227 233 217 222 225 227 230
Height
781 778 777 777 807 813 811 797 777 789 793 784 777 784 793 792 801 818 798 801 808 814 818 820 824 826 827 829 830 831 833 834 835 838 839 841 841 842 843 844 845 847 848 848 848 849 849 849 850
776 778 780 791 825 837 815 783 795 790 784 780 781 783 788 802 792 800 803 804 808 814 819 821 824 826 828 830 832 833 834 835 836 838 839 841 841 843 845 846 847 848 849 849 850 850 850 850 852
778 778 792 812 830 842 825 787 790 791 784 781 787 782 785 796 798 800 803 806 809 816 819 822 825 827 828 830 832 834 835 835 837 839 840 841 842 845 847 848 848 849 849 850 851 852 852 851 853
782 788 803 826 825 813 803 794 781 785 784 782 786 793 787 787 792 796 803 806 809 816 820 823 826 828 829 831 833 833 836 837 838 839 840 842 842 845 847 849 850 850 852 853 853 853 853 854 856
789 800 826 832 825 808 793 792 781 788 788 787 786 799 797 793 793 799 804 806 809 816 821 824 826 828 830 832 833 834 836 837 839 840 842 842 844 846 848 849 849 850 851 853 854 854 854 856 856
803 805 831 840 825 798 797 799 791 792 789 787 793 798 801 795 796 802 806 809 811 815 821 824 827 829 830 832 834 835 837 838 839 841 843 844 846 847 848 848 850 851 852 854 855 855 855 854 854
804 813 828 824 817 807 793 798 799 786 791 794 789 804 803 801 800 802 807 811 815 818 821 824 827 828 830 832 834 836 838 839 840 842 843 844 846 847 848 850 850 851 852 853 855 856 856 856 855
794 805 821 812 814 837 794 785 779 786 797 786 785 803 807 798 803 805 808 813 817 820 822 824 826 828 830 832 834 836 839 840 841 843 843 845 846 847 849 850 851 851 852 853 854 855 856 856 856
786 818 825 809 808 822 807 793 773 778 789 787 788 787 792 799 803 807 811 816 820 822 824 826 827 828 830 832 834 837 839 841 842 843 844 845 845 847 848 850 850 851 851 852 852 855 856 858 858
792 811 803 777 778 798 783 778 776 785 788 793 792 787 795 799 802 806 810 815 820 822 824 825 827 828 830 831 833 836 838 840 842 843 844 844 845 846 848 850 851 851 852 854 855 857 856 855 854
775 791 769 760 763 765 774 779 775 783 792 783 789 789 795 798 802 805 809 808 811 817 822 824 826 828 829 830 832 835 837 840 841 842 844 845 846 846 848 850 852 853 854 855 855 855 855 853 850
774 760 758 755 752 765 774 773 781 780 775 770 778 784 791 795 799 802 805 810 812 816 819 822 824 827 828 830 832 834 837 840 841 842 844 845 846 847 848 851 853 852 854 854 854 854 855 856 853
768 761 754 750 752 756 765 776 773 774 770 771 775 781 785 791 796 798 801 806 809 812 816 820 822 824 827 829 831 834 837 839 840 841 842 845 847 847 847 848 850 851 852 851 851 851 851 855 857
765 760 756 751 753 762 769 776 771 772 768 772 777 782 784 788 790 798 801 803 806 808 810 816 820 823 826 828 830 833 836 837 839 840 841 843 846 846 845 848 849 851 850 849 850 847 850 853 854
764 774 763 758 755 758 763 784 780 764 768 776 778 778 781 783 787 787 791 795 799 803 806 812 816 820 823 825 829 831 834 836 838 839 840 842 844 846 846 848 849 851 849 849 848 846 848 851 852
779 778 794 760 753 750 759 793 766 762 766 774 767 764 772 775 778 784 787 791 797 802 806 809 813 817 821 823 826 830 833 835 836 837 838 840 843 845 846 848 849 849 848 847 847 847 847 844 849
793 810 795 775 750 752 763 782 760 758 765 769 764 761 766 771 778 779 784 787 793 798 803 807 810 814 818 821 823 826 830 833 835 836 836 838 842 844 845 847 850 850 848 846 846 848 848 845 845
813 807 784 778 760 755 765 771 755 758 761 766 766 765 765 769 768 772 779 784 789 794 799 804 807 811 815 818 820 823 827 830 832 834 836 837 839 841 843 846 848 850 850 848 847 848 848 845 844
792 796 790 769 753 763 772 768 759 760 760 768 771 767 766 762 762 769 775 780 786 790 795 799 802 807 810 815 817 819 822 827 830 832 834 836 837 839 842 844 846 847 848 848 846 847 848 849 846
789 790 789 767 752 760 763 768 755 747 754 753 757 763 759 760 765 767 772 777 781 784 788 794 797 801 805 809 813 816 819 824 827 829 832 834 835 837 839 842 844 846 846 847 847 847 847 848 847
786 786 784 786 769 761 765 781 762 741 738 740 743 743 747 750 755 761 766 769 775 780 783 787 790 794 799 804 809 813 817 821 824 826 829 831 833 835 837 839 842 844 846 845 846 846 847 846 847
792 766 769 773 789 812 770 819 770 752 744 738 735 738 740 744 748 752 758 764 767 769 777 781 785 789 794 799 804 807 811 815 818 821 825 829 831 833 835 837 839 841 843 844 844 845 845 845 846
781 761 764 768 787 795 784 811 779 751 750 738 731 727 730 735 739 746 750 754 759 768 771 776 781 786 790 795 799 802 806 809 813 818 822 825 828 830 833 835 836 838 840 842 843 844 844 845 846
749 764 782 794 804 830 792 801 785 766 741 731 726 724 723 730 735 740 746 753 759 765 769 773 778 782 787 792 796 799 802 805 809 814 816 820 823 827 829 831 833 835 837 839 841 842 843 843 844
761 803 842 836 840 836 795 806 787 739 728 720 722 720 719 723 732 737 743 748 755 759 765 770 774 779 784 788 793 796 798 801 804 807 811 815 818 820 823 826 827 830 833 836 837 838 840 841 842
774 797 838 837 847 828 788 795 770 730 715 727 725 724 721 719 724 729 733 740 748 754 760 766 770 776 780 784 788 792 795 797 800 803 806 809 812 815 818 820 823 826 829 832 834 836 837 838 839
772 792 782 809 816 831 808 772 745 726 737 734 729 729 721 720 721 725 731 736 743 750 755 759 765 771 776 779 784 787 791 794 795 798 802 805 807 810 813 816 818 822 824 827 830 831 833 835 836
761 763 800 822 827 826 815 794 794 764 753 746 743 741 734 720 719 724 728 732 739 744 749 755 758 762 767 774 781 785 787 790 792 795 797 800 803 806 808 811 813 816 819 821 824 826 828 830 833
782 792 798 808 821 839 849 816 785 788 782 772 762 758 743 726 720 721 723 728 733 739 745 751 758 762 766 770 774 779 784 790 792 792 793 794 798 800 803 806 808 810 812 815 817 821 823 825 828
773 785 797 822 817 822 827 819 796 788 782 778 774 768 752 743 735 736 742 739 728 734 738 741 748 754 758 764 770 773 776 780 785 793 792 791 791 794 796 800 803 804 806 809 811 814 817 820 822